Погода в Гиганте

Погода в Гиганте : погода сейчас, прогноз погоды и архив. Всё, что Вы хотите узнать о погоде в Гиганте!

Поиск расширенной информации на нашем сайте:

Другие новости

Новости СМИ2

Главная страница сайта

Новости сайта

02.10.2013

Напоминаем, что на нашем новом сайте вы можете получить высокодетализированные прогнозы погоды по пунктам России, СНГ и мира (включающие важные для авиации метеовеличины, такие как направление и скорость ветра, видимость, явления погоды, количество и форма облачности, нижняя и верхняя граница облачности), а также ознакомиться с разнообразными материалами по авиационной метеорологии и подборкой полезных ссылок на эту тему.

Сайт Метеоцентр.Азия посвящён разработке технологий оптимизации авиаметеорологического обслуживания, включая проектирование и перспективное создание нескольких автоматизированных авиаметеорологических систем:
- система выпуска высокодетальных прогностических карт явлений погоды для нижнего воздушного пространства по России и ближнему зарубежью;
- система верификации прогнозов TAF (выпускаемых синоптиками официальных АМСГ РФ и ближнего зарубежья) и AUTOTAF (выпускаемых сайтом Метеоцентр.Азия) - выявление ошибок, онлайн-сопоставление с фактической погодой METAR, автоматическое внесение коррективов в прогнозы при резком отклонении фактической погоды от прогноза, подсчёт оправдываемости прогнозов по элементам и в целом;
- система обработки, анализа и отображения авиаметеорологической информации для применения провайдерами метеорологической информации.

Рекомендуем: приворот вуду, услги черной ведьмы Софии Драгош

Погода в Гиганте - сегодня

Время (UTC), дата Ветер
(°,м/с) 
Видим.   Явления Облачность Т
(°С)
Тd
(°С)
f(%) Тe
(°С)
Pmin
(гПа)
dP
(гПа)
Po
(мм)
O2
(г/м3)
Тmin Tmax R s Состояние
почвы
03 20.04.17 320 (СЗ) 3{10}  20000 м    10/10 600 м 
[Sc]
+2.8 +1.1 89 +1  1021.4  1.4  759  302  +2.8        сухая 
06 20.04.17 320 (СЗ) 20000 м  {ливн. осадки}  10/10 600 м 
[Sc]
+3.4 +0.4 81 +3  1022.2  0.7  759  302  +2.6         
09 20.04.17 320 (СЗ) 20000 м    10/10 600 м 
[Sc]
+5.1 +0.8 74 +5  1021.9  -0.2  759  300           
12 20.04.17 020 (С) 20000 м    4/0 верхняя 
[Ci fib]
+8.8 +1.6 61 +8  1020  -1.7  758  296           
15 20.04.17 090 (В) 20000 м    8/0 верхняя 
[Ci fib]
+10.1 +1.8 56 +10  1018.6  -1.3  757  294    +10.2  0.0     
18 20.04.17 060 (СВ) 20000 м    5/0 верхняя 
[Ci fib]
+6.1 +1.2 71 +5  1019.1  0.4  757  298           
21 20.04.17 080 (В) 20000 м    ясно 
+5 +1.4 78 +3  1017.3  -1.8  756  299           
00 21.04.17 100 (В) 6-10{10}  20000 м    ясно 
+5.2 +2.7 84 +3  1015.1  -2.2  754  298           
03 21.04.17 090 (В) 7-11{11}  20000 м    9/0 средняя, верхняя 
[Ac As|Ci fib]
+5 +3 87 +2  1012.7  -2.3  752  297  +4.6        сухая 
06 21.04.17 060 (СВ) 2{12}  4000 м  слаб. ливневой дождь  10/10 600 м кучево-дожд. 
[Cb cap]
+6.8 +4.8 87 +7  1014.9  2.3  754  296           
09 21.04.17 100 (В) 7-12{12}  4000 м  ливневой дождь  10/10 600 м кучево-дожд. 
[Cb cap]
+7.2 +6.6 96 +5  1013.1  -1.8  753  294           
12 21.04.17 150 (ЮВ) 3{12}  4000 м  слаб. ливневой дождь  10/10 600 м кучево-дожд. 
[Cb cap]
+8.8 +7.9 94 +8  1013.6  -1.8  753  293           
15 21.04.17 220 (ЮЗ) 4000 м  ливневой дождь  10/10 600 м кучево-дожд. 
[Cb cap]
+9.1 +8.3 95 +9  1013.1  -0.5  753  292    +9.2  11     
18 21.04.17 240 (ЮЗ) 4{10}  4000 м  слаб. ливневой дождь  10/10 600 м кучево-дожд. 
[Cb cap]
+5.2 +3.9 91 +4  1014.8  1.6  754  297           
21 21.04.17 210 (ЮЗ) 3{11}  20000 м  {ливн. осадки}  10/10 600 м кучево-дожд. 
[Cb cap]
+4.7 +3.5 92 +4  1013.5  -1.3  753  298           
00 22.04.17 190 (Ю) 20000 м  {ливн. осадки}  5/5 600 м 
[Sc diur, vesp]
+4 +2.7 91 +3  1011.2  -2.3  751  298           
03 22.04.17 210 (ЮЗ) 6-11{11}  20000 м    8/8 600 м 
[Sc diur, vesp]
+5 +2.4 83 +2  1009.3  -1.9  750  296  +4      влажная 
06 22.04.17 220 (ЮЗ) 9-16{18}  20000 м  слаб. ливневой дождь  10/10 600 м кучево-дожд. 
[Cb cap]
+6.2 +2.8 79 +3  1009.4  0.1  750  295           
09 22.04.17 250 (З) 6-12{21}  20000 м  слаб. ливневой дождь  10/10 600 м кучево-дожд. 
[Cb cap]
+6.4 +3.9 84 +4  1012.4  752  295           
12 22.04.17 270 (З) 8-17{18}  20000 м  {ливн. осадки}  9/9 600 м кучево-дожд. 
[Cb cap]
+7 +2.3 72 +4  1015.1  2.6  754  296           
15 22.04.17 250 (З) 6-11{17}  20000 м    1/1 1000 м 
[Sc]
+11 -2.7 38 +10  1015.4  0.4  754  293    +11.1  0.3     
18 22.04.17 220 (ЮЗ) 2{11}  20000 м    ясно 
+7.1 +1.5 68 +7  1016.6  1.1  755  296           
21 22.04.17 240 (ЮЗ) 3{11}  20000 м    6/4 600 м верхняя 
[Sc|Ci fib]
+6.3 +1.8 73 +5  1016.2  -0.4  755  297           
00 23.04.17 210 (ЮЗ) 20000 м    10/10 600 м 
[Sc]
+5.3 +2.4 82 +5  1015.4  -0.9  754  298           
03 23.04.17 170 (Ю) 20000 м    10/10 600 м 
[Sc]
+5.1 +2.9 86 +5  1014.5  -0.9  754  298  +4.7        влажная 
Время (UTC), дата Ветер
(°,м/с) 
Видим.   Явления Облачность Т
(°С)
Тd
(°С)
f(%) Тe
(°С)
Pmin
(гПа)
dP
(гПа)
Po
(мм)
O2
(г/м3)
Тmin Tmax R s Состояние
почвы

Для получения пояснительной информации подведите курсор к названию столбца.

ПОГОДА в Гиганте - архив

Всё, что Вы хотите узнать о погоде в Гиганте - удобно и подробно!

Выберите нужную дату (начиная с 1 января 2015* года) и нажмите кнопку "Найти".
Будут отображены архивные сводки погоды по пункту Гигант, начиная с указанной даты.


Отображать данные в формате CSV (для использования в таблицах Excel)


Внимание! Наш архив погоды предназначен исключительно для личного некоммерческого использования в познавательных целях. Если Вам необходимы официальные справки о состоянии погоды (для производственных, юридических, коммерческих и т.п. целей), обращайтесь в органы Росгидромета.

*Примечание: данная дата относится к архиву по метеостанциям СССР (Россия, СНГ, Балтия).
Архив по метеостанциям Зарубежной Европы и Азии (кроме Китая) хранится 10 дней, по другим регионам земного шара (Китай, Африка, Америка, Австралия, Океания) - 1 день.

Гигант - район местоположения метеостанции


Название, широта, долгота, высота метеостанции:
Гигант 46.5°ш. 41.3°д. 79 м над ур. моря [Российская Федерация]

Дополнительная информация

В oтличие oт бoльшинства пoгoдных сайтoв мы публикуем пoдрoбную метеoинфoрмацию в детальнoм прoфессиoнальнoм фoрмате.

Характеристики температуры и влажнoсти вoздуха измеряются на высoте 2 м в тени вдали oт зданий и деревьев.
Скoрoсть ветра измеряется на высoте 10 м (на урoвне рoста челoвека скoрoсть ветра ниже в 1.5-2 раза). Если метеoстанция нахoдится в гoрoде или в лесу, тo скoрoсть ветра занижена на 2-4 м/с пo сравнению с oткрытым местoм. Скoрoсть ветра над акватoриями крупных рек и oзёр, а также на вершинах хoлмoв на 2-5 м/с выше, чем в oбычных услoвиях.
Атмoсфернoе давление в разных тoчках местнoсти мoжет значительнo oтличаться oт давления на метеoстанции, в зависимoсти oт услoвий рельефа (при пoдъёме на 10 м давление пoнижается примернo на 1 мм рт.ст.).